CW4167 Weather Reports


time (UTC)temp
F
wind
direction
speed
knots
gust
knots
rain 1hr
in
rain 24hr
in
rain mn
in
humidity
%
barometer
mb
20210518212205 49 198 0.0 0.0 0.00 0.00 0.00 85 1008.5
20210518211704 50 200 0.0 0.9 0.00 0.00 0.00 85 1008.5
20210518211205 50 213 0.0 0.0 0.00 0.00 0.00 85 1008.5
20210518210705 50 217 0.0 0.0 0.00 0.00 0.00 84 1008.4
20210518210205 50 214 0.0 0.0 0.00 0.00 0.00 84 1008.4
20210518205704 50 208 0.0 0.0 0.00 0.00 0.00 84 1008.3
20210518205205 50 207 0.0 0.0 0.00 0.00 0.00 84 1008.4
20210518204705 51 210 0.0 0.0 0.00 0.00 0.00 83 1008.5
20210518204205 51 194 0.0 0.0 0.00 0.00 0.00 83 1008.5
20210518203704 51 190 0.0 0.0 0.00 0.00 0.00 83 1008.5
20210518203205 51 197 0.0 0.0 0.00 0.00 0.00 82 1008.4
20210518202705 51 196 0.0 0.0 0.00 0.00 0.00 82 1008.4
20210518201704 52 194 0.0 0.0 0.00 0.00 0.00 81 1008.4
20210518201205 52 191 0.0 0.0 0.00 0.00 0.00 81 1008.3
20210518200704 52 221 0.0 0.0 0.00 0.00 0.00 81 1008.3
20210518200205 52 227 0.0 0.0 0.00 0.00 0.00 81 1008.3
20210518195205 53 216 0.0 0.0 0.00 0.00 0.00 80 1008.3
20210518194704 53 186 0.0 0.0 0.00 0.00 0.00 80 1008.2
20210518193705 53 185 0.0 0.0 0.00 0.00 0.00 79 1008.1
20210518193205 53 193 0.0 0.0 0.00 0.00 0.00 79 1008.1
20210518192704 53 228 0.0 0.0 0.00 0.00 0.00 78 1008.1
20210518191705 54 231 0.0 0.0 0.00 0.00 0.00 78 1007.9
20210518190705 54 233 0.0 0.0 0.00 0.00 0.00 78 1008.0
20210518185705 55 282 0.0 0.0 0.00 0.00 0.00 77 1008.0
20210518185204 55 272 0.0 0.0 0.00 0.00 0.00 77 1007.9
20210518184705 55 257 0.0 0.0 0.00 0.00 0.00 77 1007.9
20210518183704 55 263 0.0 0.9 0.00 0.00 0.00 76 1007.9
20210518183204 56 279 0.0 0.0 0.00 0.00 0.00 75 1007.9
20210518182704 56 285 0.0 0.0 0.00 0.00 0.00 75 1007.8
20210518182204 56 267 0.0 0.0 0.00 0.00 0.00 75 1007.8
20210518181205 56 262 0.0 0.0 0.00 0.00 0.00 74 1007.7
20210518180704 56 256 0.0 0.0 0.00 0.00 0.00 73 1007.7
20210518180205 56 280 0.0 0.0 0.00 0.00 0.00 73 1007.7
20210518174704 57 288 0.0 0.0 0.00 0.00 0.00 70 1007.6
20210518174205 57 265 0.0 4.3 0.00 0.00 0.00 70 1007.6
20210518173705 57 277 0.9 6.1 0.00 0.00 0.00 69 1007.6
20210518173204 58 276 0.0 2.6 0.00 0.00 0.00 68 1007.6
20210518172204 59 283 0.0 0.0 0.00 0.00 0.00 64 1007.6
20210518171705 59 231 0.0 2.6 0.00 0.00 0.00 64 1007.5
20210518171205 60 275 0.0 1.7 0.00 0.00 0.00 63 1007.5
20210518170704 60 262 0.0 7.8 0.00 0.00 0.00 64 1007.5
20210518165704 60 233 0.0 4.3 0.00 0.00 0.00 64 1007.4
20210518165204 59 245 0.9 8.7 0.00 0.00 0.00 65 1007.5
20210518164704 59 207 1.7 8.7 0.00 0.00 0.00 66 1007.5
20210518163204 57 256 0.9 10.4 0.00 0.00 0.00 68 1007.4
20210518162705 57 210 0.0 0.9 0.00 0.00 0.00 69 1007.4
20210518162204 57 229 0.0 0.9 0.00 0.00 0.00 68 1007.4
20210518161704 58 248 0.0 6.1 0.00 0.00 0.00 66 1007.4
20210518161204 58 205 1.7 8.7 0.00 0.00 0.00 65 1007.4
20210518160704 59 228 1.7 7.8 0.00 0.00 0.00 66 1007.4
20210518160204 59 197 0.0 1.7 0.00 0.00 0.00 66 1007.3
20210518155704 59 249 0.0 0.9 0.00 0.00 0.00 66 1007.3
20210518155205 58 203 0.0 4.3 0.00 0.00 0.00 67 1007.3
20210518154704 58 224 0.0 0.9 0.00 0.00 0.00 67 1007.3
20210518154204 58 208 0.0 0.9 0.00 0.00 0.00 68 1007.3
20210518153704 57 265 0.9 7.8 0.00 0.00 0.00 69 1007.3
20210518153204 57 153 0.9 8.7 0.00 0.00 0.00 67 1007.3
20210518151704 58 227 0.0 5.2 0.00 0.00 0.00 68 1007.2
20210518151204 57 261 0.0 5.2 0.00 0.00 0.00 67 1007.2
20210518150704 57 269 0.9 7.8 0.00 0.00 0.00 67 1007.2
20210518150205 57 237 0.0 1.7 0.00 0.00 0.00 68 1007.3
20210518145704 57 272 0.9 5.2 0.00 0.00 0.00 69 1007.3
20210518144204 57 279 0.0 0.9 0.00 0.00 0.00 70 1007.3
20210518143204 57 235 0.0 6.1 0.00 0.00 0.00 70 1007.3
20210518142704 57 264 0.9 7.8 0.00 0.00 0.00 72 1007.3
20210518141704 56 267 0.0 7.8 0.00 0.00 0.00 71 1007.3
20210518141204 56 276 0.0 5.2 0.00 0.00 0.00 73 1007.3
20210518140204 55 253 0.9 4.3 0.00 0.00 0.00 76 1007.2
20210518135704 55 271 0.0 5.2 0.00 0.00 0.00 76 1007.2
20210518135204 55 283 0.0 2.6 0.00 0.00 0.00 76 1007.3
20210518133704 55 235 2.6 8.7 0.00 0.00 0.00 74 1007.3
20210518131204 56 229 0.9 6.1 0.00 0.00 0.00 71 1007.2
20210518130704 56 229 0.0 0.9 0.00 0.00 0.00 71 1007.2
20210518130204 56 213 0.0 4.3 0.00 0.00 0.00 71 1007.2
20210518125204 56 212 0.0 5.2 0.00 0.00 0.00 71 1007.1
20210518123704 57 236 0.9 8.7 0.00 0.00 0.00 68 1007.1
20210518123205 57 236 0.0 7.0 0.00 0.00 0.00 68 1007.0
20210518122705 57 239 0.0 2.6 0.00 0.00 0.00 66 1007.0
20210518121704 57 222 0.0 1.7 0.00 0.00 0.00 64 1006.9
20210518121205 58 233 1.7 7.8 0.00 0.00 0.00 64 1006.8
20210518120704 58 244 0.9 8.7 0.00 0.00 0.00 63 1006.8
20210518114705 58 192 0.0 0.9 0.00 0.00 0.00 63 1006.7
20210518114206 59 260 0.0 6.1 0.00 0.00 0.00 63 1006.7
20210518113206 59 246 0.0 8.7 0.00 0.00 0.00 64 1006.6
20210518112705 59 274 0.0 8.7 0.00 0.00 0.00 63 1006.6
20210518111706 59 263 0.0 6.1 0.00 0.00 0.00 65 1006.6
20210518105705 58 248 0.0 1.7 0.00 0.00 0.00 66 1006.5
20210518105205 58 255 0.0 2.6 0.00 0.00 0.00 65 1006.6
20210518104706 58 265 0.9 4.3 0.00 0.00 0.00 67 1006.6
20210518103705 57 260 0.9 7.8 0.00 0.00 0.00 65 1006.6
20210518100206 58 233 0.0 1.7 0.00 0.00 0.00 68 1006.4
20210518094705 57 253 0.9 5.2 0.00 0.00 0.00 69 1006.4
20210518094205 57 303 0.0 0.9 0.00 0.00 0.00 72 1006.4
20210518093706 56 262 0.9 5.2 0.00 0.00 0.00 69 1006.4
20210518093206 56 271 0.9 5.2 0.00 0.00 0.00 71 1006.3
20210518091706 57 287 0.0 0.9 0.00 0.00 0.00 69 1006.3
20210518091205 57 272 0.9 6.1 0.00 0.00 0.00 71 1006.3
20210518090705 57 256 1.7 10.4 0.00 0.00 0.00 71 1006.3
20210518085705 57 260 0.0 2.6 0.00 0.00 0.00 69 1006.3
20210518085205 58 274 0.0 0.9 0.00 0.00 0.00 69 1006.3
20210518084706 58 241 0.0 8.7 0.00 0.00 0.00 69 1006.3
20210518084206 57 307 0.0 0.0 0.00 0.00 0.00 70 1006.3
20210518083706 57 284 0.0 1.7 0.00 0.00 0.00 71 1006.3
20210518083206 58 284 4.3 10.4 0.00 0.00 0.00 69 1006.3
20210518082706 58 279 1.7 6.1 0.00 0.00 0.00 70 1006.3
20210518081206 56 281 1.7 8.7 0.00 0.00 0.00 71 1006.3
20210518080705 56 279 0.0 2.6 0.00 0.00 0.00 73 1006.3
20210518080206 56 267 0.0 2.6 0.00 0.00 0.00 72 1006.2
20210518075705 56 272 0.9 8.7 0.00 0.00 0.00 74 1006.2
20210518075205 56 277 0.9 2.6 0.00 0.00 0.00 77 1006.2
20210518074205 55 225 0.0 0.9 0.00 0.00 0.00 78 1006.2
20210518073706 55 253 0.0 4.3 0.00 0.00 0.00 78 1006.2
20210518073205 55 277 0.9 7.8 0.00 0.00 0.00 77 1006.1
20210518072705 55 280 0.0 1.7 0.00 0.00 0.00 79 1006.1
20210518072205 54 232 0.0 0.9 0.00 0.00 0.00 81 1006.0
20210518071706 54 249 0.0 0.0 0.00 0.00 0.00 80 1006.0
20210518071206 53 286 0.0 8.7 0.00 0.00 0.00 80 1005.8
20210518070706 53 266 0.9 5.2 0.00 0.00 0.00 80 1005.8
20210518070206 53 245 0.9 7.8 0.00 0.00 0.00 82 1005.7
20210518065705 53 298 1.7 8.7 0.00 0.00 0.00 83 1005.7
20210518064705 51 278 0.9 7.8 0.00 0.00 0.00 85 1005.7
20210518064205 51 245 0.0 0.0 0.00 0.00 0.00 86 1005.6
20210518060705 50 278 0.0 0.0 0.00 0.00 0.00 87 1005.4
20210518060205 49 265 0.0 0.0 0.00 0.00 0.00 87 1005.4
20210518055205 49 273 0.0 0.0 0.00 0.00 0.00 87 1005.4
20210518054706 49 263 0.0 0.0 0.00 0.00 0.00 87 1005.1
20210518054206 49 273 0.0 0.0 0.00 0.00 0.00 87 1005.1
20210518052705 49 270 0.0 2.6 0.00 0.00 0.00 87 1005.1
20210518051705 49 263 0.9 4.3 0.00 0.00 0.00 87 1004.9
20210518051205 49 255 0.0 2.6 0.00 0.00 0.00 87 1004.9
20210518050205 49 260 0.0 0.0 0.00 0.00 0.00 87 1004.8
20210518045705 49 264 0.9 5.2 0.00 0.00 0.00 87 1004.8
20210518045206 50 282 0.9 4.3 0.00 0.00 0.00 87 1004.8
20210518043205 50 260 0.9 6.1 0.00 0.00 0.00 87 1004.6
20210518042705 50 271 0.0 0.0 0.00 0.00 0.00 87 1004.5
20210518041206 50 265 0.0 1.7 0.00 0.00 0.00 87 1004.4
20210518035705 50 281 0.0 2.6 0.00 0.00 0.00 87 1004.3
20210518035205 50 281 0.0 0.0 0.00 0.00 0.00 87 1004.3
20210518033205 49 258 0.0 0.9 0.00 0.00 0.00 87 1004.1
20210518032706 49 251 0.0 0.0 0.00 0.00 0.00 87 1004.1
20210518032205 49 218 0.0 0.0 0.00 0.00 0.00 87 1003.9
20210518031705 49 229 0.0 0.0 0.00 0.00 0.00 87 1003.9
20210518030705 49 255 0.0 0.9 0.00 0.00 0.00 87 1003.8
20210518030205 49 223 0.0 4.3 0.00 0.00 0.00 87 1003.7
20210518025705 49 209 0.0 0.0 0.00 0.00 0.00 87 1003.7
20210518025205 49 200 0.0 0.0 0.00 0.00 0.00 87 1003.7
20210518024706 49 198 0.0 0.0 0.00 0.00 0.00 87 1003.7
20210518023705 49 197 0.0 0.0 0.00 0.00 0.00 87 1003.6
20210518023206 49 197 0.0 0.0 0.00 0.00 0.00 87 1003.5
20210518022705 49 197 0.0 0.0 0.00 0.00 0.00 87 1003.5
20210518022205 49 195 0.0 0.0 0.00 0.00 0.00 87 1003.5
20210518021705 49 199 0.0 0.0 0.00 0.00 0.00 87 1003.4
20210518021205 49 199 0.0 0.0 0.00 0.00 0.00 87 1003.4
20210518020706 49 197 0.0 0.0 0.00 0.00 0.00 87 1003.4
20210518020205 49 198 0.0 0.0 0.00 0.00 0.00 87 1003.4
20210518014705 49 212 0.0 0.0 0.00 0.00 0.00 87 1003.3
20210518014206 49 212 0.0 0.0 0.00 0.00 0.00 87 1003.2
20210518013705 50 208 0.0 0.0 0.00 0.00 0.00 87 1003.2
20210518013205 50 183 0.0 0.0 0.00 0.00 0.00 87 1003.2
20210518012705 50 180 0.0 0.0 0.00 0.00 0.00 87 1003.2
20210518012205 50 178 0.0 0.0 0.00 0.00 0.00 87 1003.1
20210518011705 50 179 0.0 0.0 0.00 0.00 0.00 87 1003.1
20210518011205 50 185 0.0 0.0 0.00 0.00 0.00 87 1003.1
20210518010705 50 186 0.0 0.0 0.00 0.00 0.00 87 1003.1
20210518010206 50 206 0.0 0.0 0.00 0.00 0.00 87 1003.1
20210518004705 50 215 0.0 0.0 0.00 0.00 0.00 87 1003.0
20210518004205 50 223 0.0 0.0 0.00 0.00 0.00 87 1003.0
20210518003704 50 210 0.0 0.0 0.00 0.00 0.00 87 1003.0
20210518003205 50 144 0.0 0.0 0.00 0.00 0.00 87 1003.0
20210518002705 50 144 0.0 0.0 0.00 0.00 0.00 87 1003.0
20210518002205 50 144 0.0 0.0 0.00 0.00 0.00 87 1003.0
20210518001705 50 144 0.0 0.0 0.00 0.00 0.00 87 1003.0
20210518000205 50 144 0.0 0.0 0.00 0.00 0.00 87 1002.9
20210517235205 50 144 0.0 0.0 0.00 0.00 0.00 87 1003.0
20210517234705 50 144 0.0 0.0 0.00 0.00 0.00 87 1003.0
20210517234205 50 144 0.0 0.0 0.00 0.00 0.00 87 1002.9
20210517233705 51 144 0.0 0.0 0.00 0.00 0.00 87 1003.0
20210517233205 51 144 0.0 0.0 0.00 0.00 0.00 87 1002.9
20210517232205 51 144 0.0 0.0 0.00 0.00 0.00 87 1002.9
20210517231705 51 144 0.0 0.0 0.00 0.00 0.00 86 1003.0
20210517230705 51 146 0.0 0.0 0.00 0.00 0.00 86 1002.9
20210517230205 51 160 0.0 0.0 0.00 0.00 0.00 86 1002.9
20210517225705 51 175 0.0 0.0 0.00 0.00 0.00 86 1002.9
20210517224705 51 175 0.0 0.0 0.00 0.00 0.00 86 1002.8
20210517224205 51 168 0.0 0.0 0.00 0.00 0.00 86 1002.8
20210517223705 51 164 0.0 0.0 0.00 0.00 0.00 86 1002.8
20210517223205 51 148 0.0 0.0 0.00 0.00 0.00 86 1002.8
20210517222705 51 146 0.0 0.0 0.00 0.00 0.00 86 1002.8
20210517222205 51 144 0.0 0.0 0.00 0.00 0.00 86 1002.7
20210517221705 51 143 0.0 0.0 0.00 0.00 0.00 86 1002.7
20210517220705 51 146 0.0 0.0 0.00 0.00 0.00 86 1002.4
20210517220205 51 148 0.0 0.0 0.00 0.00 0.00 86 1002.4
20210517215705 51 150 0.0 0.0 0.00 0.00 0.00 86 1002.4
20210517212704 51 180 0.9 1.7 0.00 0.00 0.00 86 1002.4